Probability
0 0 0 0 0 0 0 0 1 3 3 2 0 0 0 0 0 0 0 0 0 0 0 0 0 0 0 0 0 0 0 0 0 0 0 0 0 0 0 0 0 0 0
0 0 0 0 0 0 0 0 1 4 5 4 2 1 0 0 0 0 0 0 0 0 0 0 0 0 0 0 0 0 0 0 0 0 0 0 0 0 0 0 0 0 0
0 1 1 1 1 1 1 1 2 4 7 8 6 4 2 1 1 0 0 0 0 0 0 0 0 0 0 0 0 0 0 0 0 0 0 0 0 0 0 0 0 0 0
1 3 5 5 4 3 3 3 2 4 7 9 8 8 6 4 2 1 1 0 0 1 0 0 0 0 0 0 0 0 1 1 2 2 1 1 0 0 0 0 0 0 0
5 8 10 9 6 5 6 5 3 4 6 8 9 9 9 7 4 3 2 1 1 1 1 1 1 1 1 2 2 2 3 4 4 4 4 2 1 0 0 0 0 0 0
12 12 13 11 6 5 7 7 6 5 7 8 9 9 10 10 8 6 4 3 3 3 2 2 2 3 3 4 4 4 5 6 5 4 4 2 1 1 0 0 0 0 0
17 15 13 10 6 5 6 7 7 7 8 9 10 10 11 12 11 8 6 6 5 4 4 4 4 4 5 5 6 6 6 6 6 4 2 1 1 1 0 0 0 0 0
17 16 12 9 6 6 8 9 8 8 8 9 10 11 12 12 10 9 8 7 6 5 5 5 5 5 5 6 6 7 6 6 6 3 1 1 1 0 0 0 0 0 0
16 15 12 9 8 9 11 12 12 11 10 11 11 11 11 9 8 8 7 6 5 4 4 4 5 6 6 7 8 7 6 5 4 2 1 0 0 0 0 0 0 0 0
14 14 12 10 11 12 14 16 16 15 14 14 13 10 8 7 7 7 6 5 5 5 5 5 6 6 7 8 8 6 5 3 2 1 1 1 1 0 0 0 0 0 0
11 13 13 11 12 14 15 18 19 18 16 14 13 10 7 6 6 6 7 8 9 9 8 8 8 8 7 7 6 5 4 3 2 1 1 2 2 2 2 1 0 1 1
10 12 13 13 15 16 17 19 19 17 15 13 11 10 10 8 7 8 11 14 13 12 11 10 9 8 7 6 5 4 5 4 3 1 2 3 3 3 3 2 2 2 3
11 14 16 17 18 19 20 20 19 17 16 14 11 11 13 14 13 13 15 16 15 13 11 10 9 8 6 6 6 5 5 5 3 2 2 3 3 3 5 5 5 5 4
10 13 16 18 19 20 21 21 21 19 17 14 12 13 16 19 20 19 17 16 15 13 11 10 10 9 7 6 7 6 5 4 2 1 1 2 2 4 7 9 9 7 6
10 12 14 16 18 18 20 23 24 22 20 18 17 17 19 21 22 22 19 16 15 13 12 11 11 10 8 7 7 6 4 3 2 1 2 2 2 4 7 9 10 9 8
11 11 12 14 16 17 20 25 27 25 24 24 24 23 23 23 22 21 18 15 13 12 12 12 11 10 9 6 5 5 5 5 4 4 5 5 5 5 6 6 6 7 8
12 12 11 11 12 15 19 24 26 26 25 26 27 27 26 25 23 20 17 15 13 12 12 11 10 9 8 5 3 3 6 7 6 6 8 8 8 7 7 5 4 4 4
12 12 12 13 14 15 18 21 22 23 23 23 24 26 26 24 23 21 19 17 16 15 14 12 12 11 8 4 2 2 5 6 6 7 8 9 8 8 7 6 5 4 3
9 11 14 17 17 17 19 20 21 20 19 19 21 22 22 20 20 21 20 20 18 18 17 16 16 14 11 7 2 2 4 5 6 7 9 9 7 6 4 4 5 5 5
8 10 13 16 17 18 19 19 19 16 14 14 17 18 18 17 17 17 17 17 17 16 16 16 16 16 15 10 4 3 5 7 7 8 9 9 7 4 3 3 4 6 7
11 12 13 13 15 17 18 17 14 11 9 10 13 15 16 15 15 14 13 14 14 13 13 13 13 14 14 10 4 2 5 7 7 8 8 8 6 3 1 2 3 5 5
13 12 12 11 11 12 15 14 10 7 7 9 10 12 14 14 14 14 12 13 14 14 13 11 10 10 10 7 3 1 2 4 5 6 6 5 4 3 1 1 1 2 2
13 11 10 9 8 8 9 9 7 6 7 8 9 10 11 12 12 12 11 12 14 16 15 13 11 11 9 6 2 1 0 1 2 3 3 3 3 3 2 1 1 1 2
11 10 9 8 6 5 4 5 5 6 6 6 7 8 10 12 12 11 10 11 12 13 14 14 13 13 11 7 4 2 1 1 1 1 2 3 3 3 3 3 2 3 3
9 9 9 7 4 3 3 3 4 5 5 5 5 7 10 11 11 10 9 8 8 9 11 12 12 12 11 8 5 3 2 2 2 2 3 3 3 3 3 4 4 4 4
8 8 8 6 4 2 3 3 4 4 4 5 6 8 10 11 11 9 8 7 6 7 8 8 9 9 9 7 3 1 2 3 3 2 2 3 3 3 4 5 5 5 5
Wind_Speed
8 8 9 9 8 7 7 7 6 5 5 3 3 2 2 2 1 2 2 3 3 3 3 2 3 3 3 3 3 3 3 2 2 2 1 1 1 1 1 1 2 3 3
6 8 8 9 9 9 9 8 7 6 6 4 3 2 2 2 2 1 2 3 3 3 3 3 3 3 3 3 3 3 2 2 2 2 1 1 2 1 1 1 2 3 2
11 10 10 10 10 10 10 9 9 8 7 5 3 3 2 1 1 1 2 2 3 3 3 3 3 3 3 3 3 4 4 3 2 2 3 2 2 1 1 1 2 2 2
10 10 10 11 11 11 10 8 8 7 6 6 6 6 4 4 3 2 2 1 2 3 3 3 3 3 3 3 3 3 3 4 3 2 2 2 3 2 1 1 1 2 3
11 12 12 12 11 10 9 8 7 7 7 7 7 6 4 3 2 2 2 2 2 2 3 3 3 3 3 3 3 3 3 3 3 3 2 2 1 2 2 2 1 1 2
11 11 10 8 8 8 8 8 8 7 7 8 7 7 7 5 4 3 3 2 1 2 2 3 3 3 3 3 3 4 4 3 3 3 3 3 3 3 3 3 3 3 2
10 10 10 10 10 10 9 9 9 8 7 7 7 7 7 7 6 5 4 3 2 2 3 3 3 3 3 3 3 4 4 4 4 4 3 3 3 2 3 3 2 2 2
9 11 11 11 11 11 10 9 9 8 7 7 7 6 6 5 4 5 4 4 3 3 3 3 3 3 3 3 3 3 3 3 4 5 4 3 3 3 3 3 3 2 2
8 9 9 9 10 10 10 10 9 7 8 8 6 6 6 6 5 4 4 3 3 3 3 3 3 3 3 3 3 2 3 3 4 4 4 4 3 3 3 3 4 3 3
5 6 7 8 9 8 8 8 8 8 7 7 6 6 5 5 5 5 5 4 4 3 3 3 3 3 3 3 3 3 3 3 3 3 4 4 3 3 3 4 3 3 3
5 5 5 6 7 6 7 7 7 6 6 6 6 5 5 5 5 5 5 4 4 4 4 4 3 3 3 3 3 3 3 3 3 3 3 4 3 3 3 3 3 4 4
3 4 4 5 6 7 6 7 7 7 7 6 6 5 5 5 4 4 4 4 4 4 4 4 4 3 3 3 3 3 3 4 4 4 4 4 3 4 3 3 4 4 4
3 3 4 5 6 6 6 6 6 7 6 6 6 5 5 5 5 5 4 4 4 4 3 4 4 4 3 3 3 3 3 4 4 4 4 4 4 4 4 4 4 4 4
3 3 3 3 4 4 5 6 6 6 6 6 6 5 5 5 5 4 4 4 4 4 4 4 4 4 4 4 4 4 3 3 4 4 4 4 5 5 5 4 5 4 4
2 2 2 2 3 4 4 5 5 5 5 5 6 6 4 4 4 4 4 4 4 4 4 4 4 3 4 4 4 4 4 4 4 4 4 5 5 5 5 4 5 5 4
3 3 3 3 3 4 4 4 4 4 5 6 6 5 4 4 4 4 4 4 4 3 4 4 4 4 4 4 5 4 4 4 5 5 4 4 5 5 6 7 7 7 6
3 3 3 4 4 3 4 4 4 4 5 5 5 4 5 4 4 3 3 4 4 3 4 4 4 4 5 5 5 6 4 4 4 5 4 4 4 4 4 4 5 7 8
3 2 2 3 3 2 2 3 3 4 5 5 4 4 4 4 4 4 4 4 3 4 4 4 5 5 5 5 6 6 4 4 4 4 5 4 4 4 3 3 3 4 4
4 3 3 3 3 3 4 4 4 3 4 3 3 3 3 3 4 4 4 4 3 4 4 4 5 5 5 5 5 5 3 3 4 4 4 5 5 5 4 4 4 4 3
3 3 3 3 4 4 4 5 4 3 3 3 2 2 3 3 3 4 3 2 2 3 3 3 3 5 5 5 5 5 3 4 4 3 4 6 6 5 4 4 5 5 4
4 3 3 3 3 3 5 4 3 3 2 1 2 1 2 2 2 2 2 2 2 1 2 2 2 3 4 4 5 6 4 4 4 4 4 3 5 6 5 5 5 6 4
4 3 3 2 2 3 4 3 2 1 1 1 1 1 1 1 1 1 2 2 2 2 2 2 2 2 3 3 4 5 6 4 4 4 3 3 5 5 5 5 5 5 3
3 2 4 3 2 2 3 3 1 1 2 1 1 1 1 1 1 1 2 1 1 2 2 2 2 3 2 2 3 4 4 4 3 3 4 4 4 4 3 5 5 4 3
3 2 3 3 1 1 1 1 1 2 2 2 1 0 0 0 1 1 1 2 2 2 2 2 3 2 2 2 2 2 2 2 2 2 1 1 2 2 2 2 3 3 3
2 2 3 3 2 1 1 1 1 2 2 1 1 0 0 1 1 0 1 1 2 2 3 3 3 2 3 4 4 2 2 2 2 1 0 0 0 1 1 1 1 2 2
3 3 3 2 1 1 1 1 1 2 2 1 0 0 0 0 0 0 1 2 1 2 2 3 3 3 4 5 4 3 3 2 2 1 1 1 1 2 2 2 2 2 3
Wind_Direction
204 189 186 181 175 175 176 181 179 172 158 154 162 163 182 181 180 189 194 190 185 176 174 182 172 165 169 174 159 142 131 139 130 110 52 15 9 264 239 222 217 228 225
190 188 185 184 183 183 184 183 184 177 175 176 166 159 154 168 179 186 187 192 189 183 185 185 184 175 166 164 162 152 144 164 160 144 122 349 344 335 252 228 223 230 221
194 191 190 192 187 188 189 191 188 182 179 167 139 118 102 91 134 185 204 203 190 186 189 189 185 179 174 181 183 169 166 180 188 170 159 171 222 289 313 254 233 225 219
195 194 192 193 193 194 189 188 185 181 177 165 162 163 171 184 199 190 194 198 190 188 187 185 183 182 181 186 191 176 175 170 190 191 199 200 176 177 275 308 262 233 231
193 195 196 196 194 188 185 186 181 181 178 175 176 174 180 186 173 158 166 184 197 192 185 182 181 184 187 189 184 172 180 184 191 190 184 191 197 192 196 255 275 270 243
196 198 196 187 186 183 182 181 180 187 182 180 181 182 182 177 168 177 186 193 197 195 191 183 186 192 194 193 194 190 192 198 199 201 194 187 188 194 195 224 246 260 263
192 191 189 187 187 184 184 182 182 189 184 183 187 188 186 181 185 188 193 191 193 206 208 192 188 196 200 196 188 189 200 201 202 210 215 215 219 194 185 200 233 254 271
193 194 194 191 190 186 182 181 184 188 183 185 191 188 184 184 192 190 187 191 197 205 192 182 190 195 193 195 186 191 203 201 211 218 217 218 226 209 199 193 194 240 262
196 198 192 186 185 182 181 182 182 184 186 186 181 180 183 185 190 187 188 194 196 193 184 182 193 202 200 197 186 197 209 206 218 223 221 222 226 217 217 205 196 202 240
190 193 190 183 178 178 176 178 181 184 181 178 181 186 187 191 190 184 190 194 198 193 183 188 199 207 206 199 194 204 213 208 224 223 220 227 227 219 214 210 211 211 217
186 190 189 175 169 165 168 174 177 173 172 176 177 177 181 190 190 191 197 197 199 197 196 190 197 204 205 198 193 206 208 214 228 230 224 235 229 223 216 210 208 212 210
148 167 165 153 160 165 167 169 171 172 174 174 175 179 180 183 191 198 199 192 195 200 200 189 194 201 201 196 197 209 212 212 221 231 228 240 236 229 224 217 220 219 214
102 126 140 151 162 165 167 169 172 177 170 164 170 180 188 191 198 198 193 191 191 196 197 190 200 208 207 204 209 213 216 216 221 224 227 235 227 235 231 226 227 225 220
109 111 126 147 157 163 166 170 174 173 169 164 172 184 192 193 193 191 190 193 191 193 202 205 210 211 209 207 209 211 218 227 233 232 232 231 225 232 233 230 228 222 219
101 114 129 140 145 149 158 166 172 172 167 165 177 192 189 182 180 183 186 190 194 203 206 209 217 218 214 216 210 210 220 228 240 247 246 242 237 234 231 231 225 217 217
155 153 136 125 134 144 150 158 168 169 158 169 181 179 172 175 184 193 188 185 196 202 199 207 212 218 229 229 211 208 220 227 235 244 252 253 246 245 240 238 229 216 214
175 159 143 146 147 152 148 156 166 159 158 169 171 174 177 183 188 193 195 197 206 205 211 217 216 227 238 231 221 216 214 225 233 238 243 250 254 249 255 251 243 233 228
158 144 133 135 139 148 137 129 134 145 154 166 169 170 177 187 187 186 196 205 208 210 219 224 226 232 242 231 222 216 216 226 234 236 236 239 252 252 247 244 248 249 246
156 155 152 145 144 140 136 127 126 131 138 153 165 173 177 189 195 201 208 211 211 223 226 226 229 235 247 236 227 214 225 237 245 242 237 234 242 247 232 223 231 242 251
128 127 119 116 123 127 128 127 136 139 152 168 171 174 178 189 205 210 213 209 208 231 240 242 240 236 242 239 227 210 219 238 248 250 246 241 244 248 227 217 223 236 244
124 119 116 119 128 134 127 126 137 157 178 165 142 161 187 205 216 202 201 201 202 219 249 265 278 262 252 247 230 215 214 228 241 248 253 253 246 246 239 229 227 234 233
119 123 122 112 106 113 120 125 151 182 144 144 155 165 189 223 229 203 205 200 191 203 233 257 286 289 277 260 239 228 225 222 226 241 249 252 250 252 249 238 234 229 219
130 134 132 113 83 96 129 146 185 156 140 141 166 188 192 213 259 214 204 211 204 205 224 241 262 286 297 287 259 240 241 233 225 241 245 251 248 249 248 243 235 216 208
134 131 124 119 119 122 128 168 174 155 142 156 167 168 184 258 313 264 209 205 211 221 229 242 258 274 284 284 279 254 247 254 249 253 248 242 240 239 245 246 231 221 216
139 132 132 140 160 154 108 105 122 131 141 154 152 144 151 188 231 280 259 239 240 230 229 241 243 256 280 276 266 248 244 243 242 236 229 257 290 286 281 271 247 230 220
134 123 117 127 139 124 103 86 122 136 142 146 149 165 145 181 218 32 360 9 337 321 279 261 256 268 260 278 269 250 244 238 213 170 211 244 254 257 263 263 260 250 244